Location: Boca do Mato
(22.9085°S, 43.2930°W)
Time: 21:50:27
(UTC+00:00)

Atlas Centaur 2 - Pass Details

Date: 14 July 2020
Orbit: 459 x 1310 km, 30.4° (Epoch: 10 August)

Event Time Altitude Azimuth Distance (km) Brightness Sun altitude
Exits shadow 06:57:48 53° 160° (SSE) 1,551 3.4 -35.2°
Drops below altitude 10° 07:04:36 10° 113° (ESE) 3,164 5.7 -33.6°
Sets 07:07:24 0° 109° (ESE) 4,039 6.5 -33.0°
